Regional Weather Roundup
Issued by NWS Upton, NY

Current Version | Previous Version | Text Only | Print | Product List | Glossary On
Versions: 1 2 3 4 5 6 7 8 9 10 11 12 13 14 15 16 17 18 19 20 21 22 23 24 25 26 27 28 29 30 31 32 33 34 35 36 37 38 39 40 41 42 43 44 45 46 47 48 49 50
000 ASUS41 KOKX 250205 RWROKX Regional Weather Roundup National Weather Service New York NY 1000 PM EDT TUE APR 24 2018 Note: "FAIR" indicates few or no clouds below 12,000 feet with no significant weather and/or obstructions to visibility. NYZ071-072-176-178-NJZ106-104-250300- New York City Metro Area CITY SKY/WX TMP DP RH WIND PRES REMARKS Central Park CLOUDY 56 45 66 VRB7 30.24F Bronx Bot Gard N/A 52 45 76 E3 30.23S Bronx Lehman C N/A 54 45 71 E10 N/A LaGuardia Arpt CLOUDY 56 45 66 E9 30.21F Queens College N/A 55 45 67 E9 N/A Kennedy Intl CLOUDY 54 45 71 E17 30.21F Breezy Point N/A 50 N/A N/A E10 N/A Brooklyn Coll N/A 54 45 71 E10 N/A Staten Island N/A 54 45 71 E10 N/A Newark/Liberty LGT RAIN 56 46 69 E10 30.21F Teterboro CLOUDY 55 45 68 E9 30.21S $$ NYZ177-179-078>081-250300- Long Island New York CITY SKY/WX TMP DP RH WIND PRES REMARKS Jones Beach N/A 52 N/A N/A E9G15 N/A Wantagh N/A 54 45 71 E14 N/A Hempstead N/A 55 45 67 E8 30.24F Matinecock Pt N/A 55 N/A N/A E10 N/A Farmingdale CLOUDY 55 43 63 E10G20 30.22F MacArthur/ISP CLOUDY 55 43 63 E10 30.23F Stony Brook N/A 55 41 58 SE9 N/A Shirley CLOUDY 54 44 69 VRB6 30.24F Mt Sinai Harb N/A N/A N/A N/A SE8 N/A Westhampton CLOUDY 52 41 66 E6 30.26F East Hampton CLOUDY 50 42 73 E8 30.26F Southold N/A 54 43 66 SE5 N/A Montauk N/A 53 42 66 VRB5 30.28F $$ NYZ052-065-067-250300- Hudson Valley CITY SKY/WX TMP DP RH WIND PRES REMARKS White Plains LGT RAIN 51 39 63 SE10G23 30.23R FOG Larchmont Harb N/A 52 N/A N/A NE8 N/A Croton On Huds N/A 55 N/A N/A E9G17 N/A Somers N/A 54 36 50 SE9 N/A Brewster N/A 54 36 50 SE2 N/A Newburgh MOCLDY 55 43 62 VRB6 30.22F Montgomery CLOUDY 56 40 55 S5 30.20F Otisville N/A 54 41 62 SE8 N/A Warwick N/A 55 41 58 SE8 N/A Suffern N/A 54 39 58 SE5 N/A Poughkeepsie CLOUDY 57 39 51 CALM 30.21F Albany CLOUDY 60 35 39 S13G22 30.19R $$ NJZ001-105-106-008-010-013-015-019>022-104-250300- New Jersey CITY SKY/WX TMP DP RH WIND PRES REMARKS Newark/Liberty LGT RAIN 56 46 69 E10 30.21F Teterboro CLOUDY 55 45 68 E9 30.21S Caldwell CLOUDY 53 47 79 SE8 30.21F Somerville MOCLDY 54 45 71 E6 30.17F Linden DRIZZLE 53 45 73 SE10 30.20F Perth Amboy N/A 52 N/A N/A E12 N/A Sussex CLOUDY 55 42 61 SE6 30.20F Andover N/A 54 41 61 CALM 30.19F Trenton CLOUDY 56 47 71 E13 30.15F Millville LGT RAIN 53 51 93 E12 30.11F Atlantic City LGT RAIN 54 53 97 E13 30.13F Wrightstown LGT RAIN 54 51 90 E10 30.12 Toms River LGT RAIN 54 51 90 SE8 30.16F Belmar LGT RAIN 52 48 86 E18G25 30.18 $$ PAZ047>061-062-071-250300- Eastern Pennsylvania CITY SKY/WX TMP DP RH WIND PRES REMARKS Philadelphia LGT RAIN 54 50 86 E9 30.14F Allentown CLOUDY 57 43 59 E14 30.15F Scranton LGT RAIN 54 45 71 SE6 30.15S $$ CTZ002-004>006-009-010-012-RIZ004-006-007-MAZ004-011-015-250300- Southern New England In CT CITY SKY/WX TMP DP RH WIND PRES REMARKS Bradley Intl MOCLDY 56 38 50 S10 30.25S Hartford FAIR 55 38 52 S7 30.26S Danbury FAIR 53 36 52 SE8 30.24F Wtrbury/Oxford CLOUDY 51 38 60 SE7 30.25S Norwalk Harbor N/A 48 N/A N/A NE3 N/A Bridgeport CLOUDY 53 42 66 E9 30.24F Meriden MOCLDY 54 38 54 S8 30.26S New Haven CLOUDY 53 41 63 SE8 30.25F Chester CLOUDY 52 41 66 SE5 30.26F Groton CLOUDY 50 42 74 SE9 30.27S Willimantic MOCLDY 53 38 56 S5 30.28S In RI CITY SKY/WX TMP DP RH WIND PRES REMARKS Providence CLOUDY 51 40 65 S7 30.30S Block Island MOCLDY 49 42 77 SE12 30.28F Westerly CLOUDY 50 43 77 SE6 30.29S In MA CITY SKY/WX TMP DP RH WIND PRES REMARKS Boston CLOUDY 53 37 54 S16 30.28R Worcester FAIR 51 36 56 S7 30.26S Westfield MOCLDY 55 39 54 S6 30.24R Provincetown FAIR 49 40 71 S10 30.32S Nantucket FAIR 45 41 86 SE7 30.32F $$ ANZ330-335-338-340-345-350-353-355-250300- Coastal Marine Observations STATION/POSITION TIME SKY/WX TEMP WIND PRES VSBY WAVE AIR SEA DIR/SP/G HT/PER (UTC) (F) (DEG/KT/KT) (MB) (MI) (FT/S) NY Harb Entrance 0150 50 47 100/ 14/ 17 1022.5 3/ 7 20 S Fire Island 0150 49 45 100/ 14/ 16 1022.6 3/ 6 23 SSW Montauk P 0150 48 45 110/ 12/ 14 1024.6 2/ 5 15 E Barnegat Li 0130 46 N/A 4/ 7 Hudson Canyon 0150 50 46 100/ 12/ 14 1021.9 5/ 7 Kings Point 0130 53 48 130/ 4/ 6 1024.5 Execution Rocks NOT AVBL Western LI Sound NOT AVBL Central LI Sound 0115 49 120/ 8/ 10 N/A 0 Robbins Reef 0136 54 100/ 16/ 19 1023.5 $$ >>>>>>>>>>>>>>>>>>>>>>>>>>>> KEY <<<<<<<<<<<<<<<<<<<<<<<<<<< > < > SKY/WX - Sky Condition/Present Weather < > TMP - Temperature in Fahrenheit < > DP - Dew Point in Fahrenheit < > RH - Relative Humidity in Percent < > WIND - Direction (from) and Speed in MPH < > PRES - Mean Sea Level Pressure (inches of Hg) < > WCI - Wind Chill Index < > VSB - Visibility in Miles < > HX - Heat Index < > TC - Temperature in Celsius < > VRB - Varibale Wind Direction < > < >>>>>>>>>>>>>>>>>>>>>>>>>>>> KEY <<<<<<<<<<<<<<<<<<<<<<<<<<<

USA.gov is the U.S. government's official web portal to all federal, state and local government web resources and services.